Погода в Сосновке

Россия / Республика Башкортостан     53°51′24″N   58°17′26″E
темп.,
°C
ветер,
м/с
пор.,
м/с
влажн.,
%
обл.,
%
осадки,
мм/ч
давл.,
гПа
погр.,
м
6 марта, сб
сб623:00−9зсз4119598 2.1 1006504
02:00−12з299695 0.1 1010314
05:00−16зюз229858 0.1 101320
08:00−16зюз129989 0.0 101320
11:00−10зсз388578 0.1 1014730
14:00−7з477458 0.1 10131345
17:00−7з477871 0.1 10131209
20:00−12юз269589 0.0 1014130
7 марта, вс
вс723:00−13юз239894 0.1 101466
02:00−14юз1198100 0.1 101320
05:00−13ююз1196100 0.1 101220
08:00−13св0197100 0.3 101023
11:00−10с2292100 0.9 1008343
14:00−9ссз2492100 0.6 1006504
17:00−10сз4890100 1.4 1007632
20:00−16зсз359799 0.1 1009126
8 марта, пн
пн823:00−19з2210096 0.1 101223
02:00−21зюз2210096 0.0 101321
05:00−20юз2210089 0.1 101236
08:00−16ююз31495100 0.1 1011529
11:00−10юз61590100 0.3 1008973
14:00−8юз71487100 0.4 10071033
17:00−7юз71390100 0.7 10061090
20:00−8юз4139494 0.3 1006978
9 марта, вт
вт923:00−7юз6149289 0.6 10071160
02:00−7ююз4129497 0.3 1005900
05:00−7юз6149298 0.9 10041097
08:00−7юз5129492 0.6 1005862
11:00−7з369296 2.7 1006707
14:00−6з487588 0.3 10071312
17:00−6з487546 0.3 10081366
20:00−13зюз229233 0.0 100921
10 марта, ср
ср1023:00−16зюз129967 0.1 101121
02:00−17з1199100 0.0 101120
05:00−20з11100100 0.1 101220
08:00−20з11100100 0.0 101220
11:00−13зсз2388100 0.1 1011420
14:00−11зсз3485100 0.0 1010747
17:00−13сз4688100 0.1 1010723
20:00−17зсз2797100 0.1 1012290